Location: Arbon
(43.0005°N, 0.7472°E)
Time: 02:57:53
(UTC+00:00)

Cosmos 2266 Rocket - Pass Details

Date: 07 August 2020
Orbit: 934 x 1009 km, 82.9° (Epoch: 27 September)

Event Time Altitude Azimuth Distance (km) Brightness Sun altitude
Rises 02:31:10 0° 352° (N) 3,740 7.7 -21.6°
Reaches altitude 10° 02:33:44 10° 353° (N) 2,779 7.0 -21.3°
Maximum altitude 02:40:08 85° 83° (E) 999 4.0 -20.6°
Enters shadow 02:44:57 18° 171° (S) 2,188 5.5 -20.0°
